Regional Weather Roundup
Issued by NWS

Home | Current Version | Previous Version | Graphics & Text | Print | Product List | Glossary On
Versions: 1 2 3 4 5 6 7 8 9 10 11 12 13 14 15 16 17 18 19 20 21 22 23 24 25 26 27 28 29 30 31 32 33 34 35 36 37 38 39 40 41 42 43 44 45 46 47 48 49 50
084
ASUS44 KJAN 161210
RWRMS

MISSISSIPPI HOURLY WEATHER ROUNDUP
NATIONAL WEATHER SERVICE JACKSON MS
700 AM CDT WED APR 16 2014

NOTE: "FAIR: INDICATES FEW OR NO CLOUDS BELOW 12,000 FEET WITH NO
SIGNIFICANT WEATHER AND/OR OBSTRUCTIONS TO VISIBILITY.

MSZ001>002-007>008-010>013-018>021-025>028-034>036-161300-
NORTHWEST MISSISSIPPI

CITY           SKY/WX    TMP DP  RH WIND       PRES   REMARKS
CLARKSDALE       N/A     36  30  80 E5        30.28R WCI  32
CLEVELAND      FAIR      36  32  86 E5        30.26R WCI  32
GREENWOOD      CLEAR     36  27  69 E9        30.27R WCI  29
6HR MIN TEMP:  35; 6HR MAX TEMP:  39;

GREENVILLE     CLEAR     38  31  76 E6        30.25R WCI  33
6HR MIN TEMP:  37; 6HR MAX TEMP:  42;

GRENADA        FAIR      37  30  75 E9G16     30.28R WCI  31
OLIVE BRANCH   PTCLDY    32  28  86 E6        30.28R WCI  26
OXFORD         FAIR      32  25  74 E5        30.29R WCI  27
TUNICA         SUNNY     36  28  75 E7        30.29R WCI  30
$$

MSZ003>006-009-014>017-022>024-029>033-037>039-161300-
NORTHEAST MISSISSIPPI

CITY           SKY/WX    TMP DP  RH WIND       PRES   REMARKS
BELMONT        FAIR      31  26  81 CALM      30.27R
COLUMBUS AFB   CLEAR     34  27  75 E3        30.28R
6HR MIN TEMP:  33; 6HR MAX TEMP:  38;

CORINTH        FAIR      30  27  86 CALM      30.28R
GOLDN TRIANGLE CLEAR     36  25  64 E6        30.29R WCI  31
STARKVILLE     FAIR      34  30  86 E5        30.26R WCI  30
TUPELO         CLEAR     32  27  81 NE5       30.27R WCI  27
6HR MIN TEMP:  31; 6HR MAX TEMP:  35;

$$

MSZ040-058-161300-
CENTRAL MISSISSIPPI

CITY           SKY/WX    TMP DP  RH WIND       PRES   REMARKS
JACKSON INTL   PTCLDY    37  29  72 E5        30.24R WCI  33
6HR MIN TEMP:  37; 6HR MAX TEMP:  42;

JACKSON HAWKNS CLEAR     40  27  59 E10       30.24R WCI  33
6HR MIN TEMP:  36; 6HR MAX TEMP:  42;

MERIDIAN KEY   CLEAR     36  29  75 NE8       30.24S WCI  30
6HR MIN TEMP:  35; 6HR MAX TEMP:  40;

MERIDIAN NAS   CLEAR     35  29  78 N3        30.26R
6HR MIN TEMP:  34; 6HR MAX TEMP:  40;

RAYMOND        FAIR      32  28  86 MISG      30.25R FOG
VICKSBURG      CLEAR     42  31  64 E7        30.25R
6HR MIN TEMP:  42; 6HR MAX TEMP:  46;

$$

MSZ059>079-161300-
SOUTH MISSISSIPPI

CITY           SKY/WX    TMP DP  RH WIND       PRES   REMARKS
BROOKHAVEN     FAIR      32  32 100 CALM      30.24R
COLUMBIA       FAIR      36  32  87 MISG      30.22R
HATTIESBURG    CLEAR     37  33  85 E5        30.23R WCI  33
6HR MIN TEMP:  35; 6HR MAX TEMP:  43;

MCCOMB         CLEAR     36  31  82 N3        30.22R
6HR MIN TEMP:  35; 6HR MAX TEMP:  41;

NATCHEZ          N/A     36  28  75 E6        30.23R WCI  31
6HR MIN TEMP:  36; 6HR MAX TEMP:  41;

PINE BELT      CLEAR     36  28  75 NE3       30.22S
6HR MIN TEMP:  36; 6HR MAX TEMP:  39;

$$

MSZ080>082-161300-
COASTAL MISSISSIPPI

CITY           SKY/WX    TMP DP  RH WIND       PRES   REMARKS
BAY ST LOUIS   CLEAR     39  34  81 CALM      30.23
BILOXI         CLEAR     40  35  81 NE6       30.22R
6HR MIN TEMP:  39; 6HR MAX TEMP:  45;

PASCAGOULA     CLEAR     38  36  92 CALM      30.22R
6HR MIN TEMP:  36; 6HR MAX TEMP:  45;

GULFPORT       CLEAR     41  33  73 NE5       30.22R
6HR MIN TEMP:  40; 6HR MAX TEMP:  47;

$$



USA.gov is the U.S. government's official web portal to all federal, state and local government web resources and services.